Showing default

HUMSAT D, 39433

Orbit data source: Space-Track

HUMSAT D, 39433 is a payload satellite owned by U. Vigo (ES) in SSO that was launched on Thu, 21 Nov 2013 UTC via a DNEPR launch vehicle from the Orenburg, Russia (OREN). Payload-class satellites include a variety of spacecraft equipped with specific instruments for various scientific and technological missions. These include communications satellites like Starlink; space stations such as the ISS; scientific satellites like the Hubble; Earth observation satellites from companies like Planet Labs, Umbra, and HawkEye 360; GPS; miniature CubeSats for education and research; and military/defense satellites.

Loading next visibility...
Identifier
39433, 2013-066T
Orbit
SSO
Country
Flag of ESES / SPN
Related business
Manufacturer
U. Vigo
Mission
Non-operational Amateur Technology
Bus & Motor
CUBESAT 1U, Unknown motor
Mass
1 kg wet, 1 kg dry
Launch date (UTC)
2013-11-21 (12 years ago)
Launch vehicle
DNEPR
Launch site
Orenburg, Russia (OREN)
Object type
Payload
Rocket body
Debris
Shape & HBR
Box, 0.1 m
Radar Cross Section
0.015 m², Small (<0.1 m²)

Expand to show TLE details & history
Last TLE update: 17 hours ago

TLE from 17 hours ago
0 HUMSAT D
1 39433U 13066T   25300.24193066  .00071530  00000-0  13423-2 0  9990
2 39433  97.5047 299.7316 0006524   8.5287 351.6073 15.48358841650575
Epoch: 2025-10-27T05:48Z
TLE epoch observation values (Epoch: 2025-10-27T05:48:22.809Z)
Latitude
0.00002°
Longitude
176.78997°
Altitude
420.263 km
Speed
7.661 km/s
True Right ascension
19h 58m 55s
True Declination
0° 00' 00"
Sunlit
Object was in daylight at epoch
Visualization orbit readout
Latitude
Unknown
Longitude
Unknown
Altitude
Unknown
Speed
Unknown
Apparent Right ascension
Unknown
Apparent Declination
Unknown
Sunlit
N/A
Visualization observer readout
Local Sidereal Time
18:13:05
Azimuth
Unknown
Elevation
Unknown
Doppler factor
Unknown
Orbital elements
Apogee altitude
422.893 km
Perigee altitude
414.025 km
Semi-major axis
6,796.596 km
Eccentricity
0.00065
Inclination
97.5047°
RAAN
299.7316°
Arg. of periapsis
8.5287°
True anomaly
351.59638°
Mean anomaly
351.6073°
Eccentric anomaly
351.60184°
Mean motion
3.87352 °/min
Orbital period
92.94 mins
BSTAR
0.0013423
Loading maneuver chart data...
Computing Atmospheric mass density...
Loading historical data...
Loading historical data...
Loading historical data...
Loading historical data...
Loading historical data...
Loading historical data...
Loading historical data...

Documentation

Showing up to 5 results
|